THORAD AGENA D DEB, 4636

Orbit data source: Space-Track

THORAD AGENA D DEB, 4636 is space debris in SSO originally from a launch on Wed, 08 Apr 1970 UTC launched from the Air Force Western Test Range (AFWTR). Debris objects in space refer to the collection of defunct objects orbiting the Earth. Examples of debris include non-operational satellites, rocket bodies, and fragments generated from explosions, collisions, or faulty payload assembly.

Loading next visibility...
Identifier
4636, 1970-025U
Orbit
SSO
Country
Flag of USUS
Related business
Manufacturer
Unknown
Mission
Spacecraft
Bus & Motor
Unknown
Mass
Unknown
Launch date (UTC)
1970-04-08 (56 years ago)
Launch vehicle
Unknown
Launch site
Air Force Western Test Range (AFWTR)
Object type
Payload
Rocket body
Debris
Shape & HBR
Unknown shape, 0.2 m
Radar Cross Section
Medium (>0.1 m² and <1 m²)

Expand to show TLE details & history
Last TLE update: 9 hours ago

TLE from 9 hours ago
0 THORAD AGENA D DEB
1 04636U 70025U   25352.97931057  .00000312  00000-0  40752-3 0  9998
2 04636 100.0559 337.9866 0032504 222.3724 205.7285 13.70308663770469
Epoch: 2025-12-18T23:30Z
TLE epoch observation values (Epoch: 2025-12-18T23:30:12.433Z)
Latitude
65.94634°
Longitude
-125.67348°
Altitude
1,031.387 km
Speed
7.331 km/s
True Right ascension
20h 58m 49s
True Declination
65° 49' 22"
Sunlit
Object was in daylight at epoch
Visualization orbit readout
Latitude
Unknown
Longitude
Unknown
Altitude
Unknown
Speed
Unknown
Apparent Right ascension
Unknown
Apparent Declination
Unknown
Sunlit
N/A
Visualization observer readout
Local Sidereal Time
07:27:03
Azimuth
Unknown
Elevation
Unknown
Doppler factor
Unknown
Orbital elements
Apogee altitude
1,019.724 km
Perigee altitude
971.788 km
Semi-major axis
7,373.893 km
Eccentricity
0.00325
Inclination
100.0559°
RAAN
337.9866°
Arg. of periapsis
222.3724°
True anomaly
205.5674°
Mean anomaly
205.7285°
Eccentric anomaly
205.64789°
Mean motion
3.42766 °/min
Orbital period
105.03 mins
BSTAR
0.00040752
Loading maneuver chart data...
Computing Atmospheric mass density...

Documentation

Showing up to 5 results
|